Ainsworth, NE

11:34 AM CST on February 08, 2016 (GMT -0600)
Ainsworth Municipal

Weather History for KANW - April, 2014

Change the Weather History Date:

Monday, April 7, 2014

  Actual Average Record
Temperature  
Mean Temperature 44 °F -  
Max Temperature 54 °F 51 °F 69 °F (1999)
Min Temperature 34 °F 31 °F 12 °F (2009)
Degree Days  
Heating Degree Days 21    
Moisture  
Dew Point 35 °F    
Average Humidity 75    
Maximum Humidity 91    
Minimum Humidity 44    
Precipitation  
Precipitation 0.05 in - - ()
Sea Level Pressure  
Sea Level Pressure 29.96 in    
Wind  
Wind Speed 11 mph (NW)    
Max Wind Speed 38 mph    
Max Gust Speed 45 mph    
Visibility 10 miles    
Events Rain    
Averages and records for this station are not official NWS values.
T = Trace of Precipitation, MM = Missing Value Source: NWS Daily Summary

Daily Weather History Graph

Daily Weather History Graph

Search for Another Location

Airport or City:

Trip Planner

Search our weather history database for the weather conditions in past years. The results will help you decide how hot, cold, wet, or windy it might be!

Date:

Astronomy

Apr. 07, 2014 Rise Set
Actual Time 7:11 AM CDT 8:12 PM CDT
Civil Twilight 6:43 AM CDT 8:41 PM CDT
Nautical Twilight 6:08 AM CDT 9:16 PM CDT
Astronomical Twilight 5:33 AM CDT 9:52 PM CDT
Moon 1:06 PM CDT (4/7) 2:54 AM CDT (4/7)
Length of Visible Light 13h 58m
Length of Day
13h 00m
First Quarter, 53% of the Moon is Illuminated
Apr 7
First Quarter
Apr 15
Full
Apr 22
Last Quarter
Apr 29
New
May 6
First Quarter

Hourly Weather History & Observations

Time (CDT) Temp. Windchill Dew Point Humidity Pressure Visibility Wind Dir Wind Speed Gust Speed Precip Events Conditions
12:15 AM 39.0 °F 33.4 °F 33.6 °F 81% 29.87 in 10.0 mi West 8.1 mph - N/A   Clear
12:35 AM 39.7 °F 36.5 °F 34.2 °F 80% 29.88 in 10.0 mi West 4.6 mph - N/A   Clear
12:55 AM 39.2 °F 34.2 °F 33.8 °F 81% 29.88 in 10.0 mi West 6.9 mph - N/A   Scattered Clouds
1:15 AM 39.7 °F 34.9 °F 34.9 °F 83% 29.88 in 10.0 mi West 6.9 mph - N/A   Scattered Clouds
1:35 AM 40.1 °F 35.3 °F 34.9 °F 82% 29.88 in 10.0 mi West 6.9 mph - N/A   Clear
1:55 AM 39.2 °F 34.2 °F 34.2 °F 82% 29.88 in 10.0 mi West 6.9 mph - N/A   Clear
2:15 AM 37.4 °F 32.1 °F 33.1 °F 84% 29.88 in 10.0 mi West 6.9 mph - N/A   Clear
2:35 AM 36.7 °F 31.2 °F 32.7 °F 86% 29.88 in 10.0 mi West 6.9 mph - N/A   Clear
2:55 AM 36.0 °F 30.3 °F 32.5 °F 87% 29.87 in 10.0 mi West 6.9 mph - N/A   Clear
3:15 AM 35.4 °F 29.7 °F 32.0 °F 87% 29.87 in 10.0 mi West 6.9 mph - N/A   Clear
3:35 AM 35.6 °F 29.9 °F 32.2 °F 87% 29.87 in 10.0 mi West 6.9 mph - N/A   Clear
3:55 AM 35.4 °F 29.7 °F 32.0 °F 87% 29.87 in 10.0 mi West 6.9 mph - N/A   Clear
4:15 AM 35.6 °F 30.7 °F 32.0 °F 87% 29.86 in 10.0 mi West 5.8 mph - N/A   Clear
4:35 AM 34.7 °F 29.6 °F 32.0 °F 90% 29.86 in 10.0 mi West 5.8 mph - N/A   Clear
4:55 AM 34.2 °F 28.2 °F 31.8 °F 91% 29.87 in 10.0 mi West 6.9 mph - N/A   Clear
5:15 AM 34.9 °F 29.0 °F 32.0 °F 89% 29.87 in 10.0 mi West 6.9 mph - N/A   Scattered Clouds
5:35 AM 35.6 °F 28.6 °F 32.4 °F 88% 29.87 in 10.0 mi WNW 9.2 mph - N/A   Scattered Clouds
5:55 AM 36.9 °F 30.7 °F 33.3 °F 87% 29.88 in 10.0 mi WNW 8.1 mph - N/A   Scattered Clouds
6:15 AM 38.8 °F 32.6 °F 33.3 °F 80% 29.89 in 10.0 mi WNW 9.2 mph - N/A   Clear
6:35 AM 39.6 °F 33.5 °F 33.8 °F 80% 29.89 in 10.0 mi WNW 9.2 mph - N/A   Clear
7:15 AM 41.2 °F 32.7 °F 34.0 °F 76% 29.92 in 10.0 mi NW 17.3 mph - N/A   Clear
7:35 AM 42.4 °F 34.4 °F 33.8 °F 71% 29.93 in 10.0 mi NW 17.3 mph - N/A   Clear
7:55 AM 42.8 °F 36.2 °F 34.0 °F 71% 29.94 in 10.0 mi NW 12.7 mph - N/A   Clear
8:15 AM 43.7 °F 37.7 °F 34.7 °F 71% 29.94 in 10.0 mi NW 11.5 mph 19.6 mph N/A   Clear
8:35 AM 45.1 °F 38.8 °F 36.5 °F 72% 29.94 in 10.0 mi NW 13.8 mph - N/A   Clear
8:55 AM 46.2 °F 39.8 °F 37.6 °F 72% 29.95 in 10.0 mi NW 15.0 mph 19.6 mph N/A   Clear
9:15 AM 45.5 °F 39.9 °F 37.6 °F 74% 29.94 in 10.0 mi NW 11.5 mph - N/A   Clear
9:35 AM 44.2 °F 38.0 °F 38.3 °F 80% 29.95 in 10.0 mi WNW 12.7 mph - N/A   Drizzle
9:55 AM 44.2 °F 36.2 °F 38.8 °F 81% 29.96 in 10.0 mi NW 19.6 mph 26.5 mph N/A   Mostly Cloudy
10:15 AM 45.3 °F 37.1 °F 37.6 °F 74% 29.96 in 10.0 mi NW 21.9 mph 27.6 mph N/A   Scattered Clouds
10:55 AM 45.9 °F 37.4 °F 37.6 °F 73% 29.97 in 10.0 mi NW 24.2 mph 27.6 mph N/A   Overcast
11:15 AM 45.7 °F 38.6 °F 37.8 °F 74% 29.97 in 10.0 mi NW 17.3 mph 25.3 mph N/A   Overcast
11:35 AM 47.1 °F - 37.6 °F 69% 29.98 in 10.0 mi NW 20.7 mph 24.2 mph N/A   Mostly Cloudy
11:55 AM 48.7 °F - 37.4 °F 65% 29.97 in 10.0 mi NNW 21.9 mph 27.6 mph N/A   Mostly Cloudy
12:15 PM 50.2 °F - 37.2 °F 61% 29.97 in 10.0 mi NNW 25.3 mph 28.8 mph N/A   Scattered Clouds
12:35 PM 51.1 °F - 36.1 °F 57% 29.97 in 10.0 mi NNW 25.3 mph 32.2 mph N/A   Clear
12:55 PM 51.6 °F - 35.1 °F 53% 29.97 in 10.0 mi North 24.2 mph 31.1 mph N/A   Scattered Clouds
1:15 PM 52.0 °F - 33.6 °F 50% 29.97 in 10.0 mi North 27.6 mph 34.5 mph N/A   Scattered Clouds
1:35 PM 52.3 °F - 33.6 °F 49% 29.97 in 10.0 mi NNW 21.9 mph 32.2 mph N/A   Scattered Clouds
1:55 PM 54.7 °F - 33.1 °F 44% 29.96 in 10.0 mi NNW 23.0 mph 32.2 mph N/A   Scattered Clouds
2:15 PM 52.5 °F - 33.4 °F 48% 29.96 in 10.0 mi NW 24.2 mph 33.4 mph N/A   Scattered Clouds
2:35 PM 49.1 °F - 36.9 °F 63% 29.96 in 7.0 mi NNW 17.3 mph 33.4 mph N/A Rain Light Rain
2:55 PM 49.5 °F - 36.0 °F 60% 29.97 in 10.0 mi NNW 26.5 mph 36.8 mph N/A Rain Light Rain
3:15 PM 46.4 °F 38.1 °F 37.9 °F 72% 29.98 in 10.0 mi NNW 24.2 mph 29.9 mph N/A Rain Light Rain
3:35 PM 46.4 °F 38.7 °F 38.3 °F 73% 29.99 in 10.0 mi NNW 20.7 mph 31.1 mph N/A Rain Light Rain
3:55 PM 44.1 °F 36.5 °F 38.3 °F 80% 30.00 in 10.0 mi NNW 17.3 mph - 0.01 in Rain Light Rain
4:15 PM 42.8 °F 38.0 °F 39.0 °F 86% 30.01 in 7.0 mi NW 8.1 mph - 0.02 in Rain Rain
4:35 PM 43.0 °F 36.0 °F 39.2 °F 86% 30.01 in 7.0 mi North 13.8 mph 19.6 mph 0.04 in Rain Rain
4:55 PM 46.4 °F 40.7 °F 40.3 °F 79% 30.00 in 10.0 mi North 12.7 mph - 0.04 in   Mostly Cloudy
5:15 PM 48.7 °F - 39.6 °F 71% 29.99 in 10.0 mi North 19.6 mph - N/A   Scattered Clouds
5:35 PM 49.3 °F - 37.6 °F 64% 30.00 in 10.0 mi NNW 16.1 mph - N/A   Clear
5:55 PM 47.5 °F - 35.2 °F 63% 30.03 in 10.0 mi NNW 38.0 mph 44.9 mph N/A   Scattered Clouds
6:15 PM 43.3 °F 33.2 °F 38.3 °F 82% 30.02 in 10.0 mi North 28.8 mph 39.1 mph N/A   Scattered Clouds
6:35 PM 46.0 °F 39.6 °F 36.7 °F 70% 30.03 in 10.0 mi North 15.0 mph 28.8 mph N/A   Clear
6:55 PM 45.1 °F 38.8 °F 36.5 °F 72% 30.03 in 10.0 mi North 13.8 mph 19.6 mph N/A   Clear
7:15 PM 45.0 °F 39.7 °F 37.4 °F 75% 30.03 in 10.0 mi NNW 10.4 mph - N/A   Clear
7:35 PM 45.5 °F 39.9 °F 36.9 °F 72% 30.03 in 10.0 mi NW 11.5 mph - N/A   Clear
7:55 PM 45.5 °F 38.6 °F 34.5 °F 65% 30.03 in 10.0 mi NNW 16.1 mph 20.7 mph N/A   Clear
8:15 PM 44.6 °F 38.8 °F 33.3 °F 64% 30.04 in 10.0 mi NNW 11.5 mph - N/A   Clear
8:35 PM 43.0 °F 37.7 °F 32.9 °F 68% 30.04 in 10.0 mi NW 9.2 mph - N/A   Clear
8:55 PM 42.1 °F 37.7 °F 32.5 °F 69% 30.05 in 10.0 mi NW 6.9 mph - N/A   Clear
9:15 PM 40.1 °F 35.3 °F 32.0 °F 73% 30.06 in 10.0 mi NW 6.9 mph - N/A   Clear
9:35 PM 37.8 °F 32.5 °F 31.8 °F 79% 30.06 in 10.0 mi WNW 6.9 mph - N/A   Clear
9:55 PM 37.0 °F 33.3 °F 31.6 °F 81% 30.07 in 10.0 mi West 4.6 mph - N/A   Clear
10:15 PM 36.0 °F 30.3 °F 30.9 °F 82% 30.07 in 10.0 mi West 6.9 mph - N/A   Clear
10:35 PM 35.6 °F 30.7 °F 30.7 °F 82% 30.06 in 10.0 mi West 5.8 mph - N/A   Clear
10:55 PM 35.1 °F 32.2 °F 30.2 °F 82% 30.05 in 10.0 mi West 3.5 mph - N/A   Clear
11:15 PM 34.3 °F 29.2 °F 29.5 °F 82% 30.06 in 10.0 mi West 5.8 mph - N/A   Clear
11:35 PM 34.3 °F 28.4 °F 30.2 °F 85% 30.05 in 10.0 mi West 6.9 mph - N/A   Clear
11:55 PM 34.7 °F 29.6 °F 30.2 °F 84% 30.05 in 10.0 mi WNW 5.8 mph - N/A   Clear